Weather History for KEYF - January, 2013

Change the Weather History Date:

Tuesday, January 1, 2013

  Actual Average (KILM) Record (KILM)
Temperature  
Mean Temperature 52 °F 46 °F  
Max Temperature 55 °F 56 °F 81 °F (1985)
Min Temperature 50 °F 36 °F 11 °F (1918)
Degree Days  
Heating Degree Days 12 19  
Month to date heating degree days 19  
Since 1 July heating degree days 903  
Cooling Degree Days 0 0  
Month to date cooling degree days 0  
Year to date cooling degree days 0  
Growing Degree Days 2 (Base 50)    
Moisture  
Dew Point 48 °F    
Average Humidity 83    
Maximum Humidity 100    
Minimum Humidity 69    
Precipitation  
Precipitation 0.07 in 0.12 in 2.39 in (1987)
Month to date precipitation 0.12  
Year to date precipitation 0.12  
Snow  
Snow 0.00 in 0.00 in 1.00 in (1940)
Month to date snowfall 0.0  
Since 1 July snowfall 0.8  
Snow Depth -    
Sea Level Pressure  
Sea Level Pressure 30.06 in    
Wind  
Wind Speed 6 mph (SW)    
Max Wind Speed 13 mph    
Max Gust Speed 17 mph    
Visibility 8 miles    
Events Rain    
T = Trace of Precipitation, MM = Missing Value Source: NWS Daily Summary

Daily Weather History Graph

Daily Weather History Graph

Search for Another Location

Airport or City:

Trip Planner

Search our weather history database for the weather conditions in past years. The results will help you decide how hot, cold, wet, or windy it might be!

Date:

Astronomy

Jan. 01, 2013 Rise Set
Actual Time 7:21 AM EST 5:14 PM EST
Civil Twilight 6:53 AM EST 5:42 PM EST
Nautical Twilight 6:22 AM EST 6:14 PM EST
Astronomical Twilight 5:51 AM EST 6:44 PM EST
Moon 9:32 PM EST 9:43 AM EST
Length of Visible Light 10h 49m
Length of Day
9h 53m
Waning Gibbous, 83% of the Moon is Illuminated
Jan 1
Waning Gibbous
Jan 4
Last Quarter
Jan 11
New
Jan 18
First Quarter
Jan 26
Full

Hourly Weather History & Observations

Time (EST) Temp. Dew Point Humidity Pressure Visibility Wind Dir Wind Speed Gust Speed Precip Events Conditions
12:15 AM 50.5 °F 41.0 °F 70% 30.16 in 10.0 mi SW 6.9 mph - N/A   Overcast
12:35 AM 50.7 °F 41.4 °F 70% 30.14 in 10.0 mi SW 5.8 mph - N/A   Mostly Cloudy
12:55 AM 51.3 °F 41.9 °F 70% 30.14 in 10.0 mi SW 6.9 mph - N/A   Mostly Cloudy
1:15 AM 52.0 °F 42.6 °F 70% 30.11 in 10.0 mi SW 9.2 mph - N/A   Overcast
1:35 AM 52.2 °F 42.4 °F 69% 30.12 in 10.0 mi SW 9.2 mph - N/A   Mostly Cloudy
1:55 AM 52.2 °F 42.6 °F 70% 30.11 in 10.0 mi SW 10.4 mph - N/A   Mostly Cloudy
2:15 AM 52.3 °F 42.8 °F 70% 30.11 in 10.0 mi SW 8.1 mph - N/A   Overcast
2:35 AM 52.3 °F 42.8 °F 70% 30.10 in 10.0 mi SW 6.9 mph - N/A   Overcast
2:55 AM 52.7 °F 43.2 °F 70% 30.10 in 10.0 mi SW 6.9 mph - N/A   Mostly Cloudy
3:15 AM 53.1 °F 43.3 °F 70% 30.09 in 10.0 mi SW 8.1 mph - N/A   Mostly Cloudy
3:35 AM 53.1 °F 43.3 °F 70% 30.10 in 10.0 mi WSW 5.8 mph - N/A   Overcast
3:55 AM 53.1 °F 43.7 °F 71% 30.09 in 10.0 mi SW 5.8 mph - N/A   Overcast
4:15 AM 53.1 °F 43.9 °F 71% 30.07 in 10.0 mi South 8.1 mph - N/A   Overcast
4:35 AM 53.1 °F 44.1 °F 71% 30.08 in 10.0 mi SW 3.5 mph - N/A   Overcast
4:55 AM 53.1 °F 44.2 °F 72% 30.08 in 10.0 mi SW 6.9 mph - N/A   Overcast
5:15 AM 53.6 °F 44.4 °F 71% 30.08 in 10.0 mi SW 9.2 mph - N/A   Overcast
5:35 AM 54.1 °F 44.2 °F 69% 30.08 in 10.0 mi WSW 6.9 mph - N/A   Overcast
5:55 AM 54.1 °F 44.2 °F 69% 30.08 in 10.0 mi WSW 9.2 mph - N/A   Overcast
6:15 AM 54.0 °F 44.2 °F 70% 30.09 in 10.0 mi WSW 8.1 mph - N/A   Overcast
6:35 AM 53.8 °F 44.6 °F 71% 30.09 in 10.0 mi WSW 6.9 mph - N/A   Overcast
6:55 AM 53.2 °F 44.4 °F 72% 30.10 in 10.0 mi WSW 6.9 mph - N/A   Overcast
7:15 AM 53.1 °F 44.6 °F 73% 30.11 in 10.0 mi SW 6.9 mph - N/A   Overcast
7:35 AM 52.9 °F 44.6 °F 73% 30.11 in 10.0 mi SW 8.1 mph - N/A   Overcast
7:55 AM 52.5 °F 44.2 °F 73% 30.12 in 10.0 mi WSW 6.9 mph - N/A   Overcast
8:15 AM 52.9 °F 44.6 °F 73% 30.12 in 10.0 mi WSW 5.8 mph - N/A   Overcast
8:35 AM 53.1 °F 44.6 °F 73% 30.11 in 10.0 mi SW 5.8 mph - N/A   Overcast
8:55 AM 53.2 °F 44.6 °F 72% 30.12 in 10.0 mi SW 5.8 mph - N/A   Overcast
9:15 AM 54.0 °F 44.6 °F 71% 30.12 in 10.0 mi SW 4.6 mph - N/A   Overcast
9:35 AM 54.0 °F 44.6 °F 71% 30.14 in 10.0 mi WSW 4.6 mph - N/A   Overcast
9:55 AM 54.0 °F 44.6 °F 71% 30.14 in 10.0 mi WSW 5.8 mph - N/A   Overcast
10:15 AM 54.1 °F 44.6 °F 70% 30.14 in 10.0 mi SW 5.8 mph - N/A   Overcast
10:35 AM 54.9 °F 45.0 °F 69% 30.14 in 10.0 mi WSW 6.9 mph - N/A   Overcast
10:55 AM 54.9 °F 45.1 °F 70% 30.13 in 10.0 mi West 5.8 mph - N/A   Overcast
11:15 AM 55.6 °F 45.7 °F 69% 30.11 in 10.0 mi West 5.8 mph - N/A   Overcast
11:35 AM 55.6 °F 45.7 °F 69% 30.11 in 10.0 mi West 8.1 mph - N/A   Overcast
11:55 AM 55.6 °F 46.8 °F 72% 30.09 in 10.0 mi West 9.2 mph - N/A   Overcast
12:15 PM 54.9 °F 48.0 °F 78% 30.08 in 10.0 mi WSW 6.9 mph - N/A   Overcast
12:35 PM 54.3 °F 48.6 °F 81% 30.06 in 7.0 mi SW 9.2 mph - N/A   Drizzle
12:55 PM 53.1 °F 49.1 °F 86% 30.05 in 5.0 mi SW 8.1 mph - 0.01 in Rain Rain
1:15 PM 52.7 °F 50.2 °F 91% 30.04 in 5.0 mi SW 9.2 mph - 0.01 in Rain Rain
1:35 PM 52.7 °F 50.5 °F 92% 30.04 in 5.0 mi SW 5.8 mph - 0.01 in   Drizzle
1:55 PM 52.2 °F 50.4 °F 94% 30.04 in 4.0 mi SW 6.9 mph - 0.01 in   Drizzle
2:15 PM 52.2 °F 50.9 °F 95% 30.03 in 5.0 mi SSW 8.1 mph - N/A   Drizzle
2:35 PM 52.2 °F 50.9 °F 95% 30.01 in 5.0 mi SW 10.4 mph - N/A   Light Drizzle
2:55 PM 52.2 °F 50.9 °F 95% 30.01 in 7.0 mi SSW 12.7 mph 17.3 mph N/A   Overcast
3:15 PM 53.1 °F 51.4 °F 94% 30.00 in 7.0 mi SSW 11.5 mph 17.3 mph N/A   Overcast
3:35 PM 54.0 °F 52.2 °F 94% 30.01 in 10.0 mi WSW 8.1 mph - N/A Rain Light Rain
3:55 PM 53.1 °F 51.4 °F 94% 30.01 in 7.0 mi SW 5.8 mph - N/A   Overcast
4:15 PM 53.1 °F 51.6 °F 95% 30.00 in 7.0 mi SW 4.6 mph - N/A   Overcast
4:35 PM 52.9 °F 51.4 °F 95% 30.01 in 5.0 mi SW 4.6 mph - N/A   Overcast
4:55 PM 52.7 °F 51.4 °F 95% 29.99 in 7.0 mi SSW 5.8 mph - N/A   Overcast
5:15 PM 52.7 °F 51.4 °F 95% 30.00 in 7.0 mi SW 5.8 mph - N/A   Overcast
5:35 PM 52.3 °F 51.4 °F 97% 30.01 in 7.0 mi SW 4.6 mph - N/A   Overcast
5:55 PM 52.7 °F 51.8 °F 97% 30.01 in 7.0 mi SW 4.6 mph - N/A   Overcast
6:15 PM 52.7 °F 51.8 °F 97% 30.01 in 7.0 mi WSW 4.6 mph - N/A   Overcast
6:35 PM 52.7 °F 51.4 °F 95% 30.01 in 7.0 mi SW 4.6 mph - N/A   Overcast
6:55 PM 53.1 °F 52.0 °F 96% 30.03 in 7.0 mi WSW 3.5 mph - N/A Rain Light Rain
7:15 PM 53.1 °F 52.2 °F 97% 30.02 in 2.5 mi West 3.5 mph - 0.02 in   Heavy Drizzle
7:35 PM 53.1 °F 52.7 °F 99% 30.02 in 2.0 mi Calm Calm - 0.03 in   Heavy Drizzle
7:55 PM 52.9 °F 52.7 °F 99% 30.01 in 2.0 mi SW 3.5 mph - 0.04 in   Drizzle
8:15 PM 53.1 °F 53.1 °F 100% 30.01 in 3.0 mi SW 3.5 mph - N/A   Light Drizzle
8:35 PM 53.1 °F 53.1 °F 100% 30.00 in 3.0 mi SW 3.5 mph - N/A   Overcast
8:55 PM 53.1 °F 53.1 °F 100% 30.00 in 5.0 mi Calm Calm - N/A   Overcast
9:15 PM 53.1 °F 53.1 °F 100% 29.99 in 5.0 mi Calm Calm - N/A   Overcast
9:35 PM 52.9 °F 52.9 °F 100% 29.99 in 4.0 mi Calm Calm - N/A   Overcast
9:55 PM 52.3 °F 52.3 °F 100% 29.98 in 3.0 mi Calm Calm - N/A   Overcast
10:15 PM 52.3 °F 52.3 °F 100% 29.99 in 2.5 mi SW 3.5 mph - N/A   Overcast
10:35 PM 52.3 °F 52.3 °F 100% 29.98 in 3.0 mi Calm Calm - N/A   Overcast
10:55 PM 52.3 °F 52.3 °F 100% 29.97 in 2.5 mi Calm Calm - N/A   Light Drizzle
11:15 PM 52.3 °F 52.3 °F 100% 29.97 in 2.0 mi Calm Calm - N/A Rain Light Rain
11:35 PM 52.2 °F 52.2 °F 100% 29.96 in 1.8 mi Calm Calm - N/A   Overcast
11:55 PM 52.3 °F 52.3 °F 100% 29.94 in 1.8 mi Calm Calm - 0.01 in   Drizzle